This demonstration page uses our WeatherBlox Daily Observations layout. Learn more.

Left ArrowRight Arrow

Hourly Observations for July 30, 2018

Temp ( °F °C ) Dew Point ( °F °C ) Humidity (%) Winds ( mph kmh ) Pressure ( in mb ) Visibility ( mi km ) Precip ( " mm )
12:51 am 00:51 Clear 83 28.3 59 15 44 44 WNW 7 11 29.83 1010 10 16.0934 N/A
1:51 am 01:51 Clear 82 27.8 60 15.6 47 47 WSW 8 13 29.83 1010 10 16.0934 N/A
2:51 am 02:51 Clear 79 26.1 62 16.7 56 56 WNW 7 11 29.82 1010 10 16.0934 N/A
3:51 am 03:51 Clear 79 26.1 63 17.2 58 58 WNW 6 9 29.82 1010 10 16.0934 N/A
4:51 am 04:51 Clear 78 25.6 63 17.2 60 60 NW 7 11 29.83 1010 10 16.0934 N/A
5:51 am 05:51 Sunny 77 25 63 17.2 62 62 ENE 7 11 29.85 1011 10 16.0934 N/A
6:51 am 06:51 Sunny 78 25.6 63 17.2 60 60 SSE 5 7 29.86 1011 10 16.0934 N/A
7:51 am 07:51 Sunny 81 27.2 61 16.1 51 51 SW 5 7 29.88 1012 10 16.0934 N/A
8:51 am 08:51 Sunny 84 28.9 60 15.6 44 44 N N/A 29.87 1011 10 16.0934 N/A
9:51 am 09:51 Sunny 90 32.2 59 15 35 35 WNW 8 13 29.85 1011 10 16.0934 N/A
10:51 am 10:51 Sunny 95 35 57 13.9 28 28 NW 12 19 29.83 1010 10 16.0934 N/A
11:51 am 11:51 Sunny 99 37.2 57 13.9 25 25 NW 13 20 29.8 1009 10 16.0934 N/A
12:51 pm 12:51 Sunny 101 38.3 55 12.8 22 22 WNW 14 22 29.77 1008 10 16.0934 N/A
1:51 pm 13:51 Sunny 102 38.9 49 9.4 17 17 W 10 17 29.75 1008 10 16.0934 N/A
2:51 pm 14:51 Sunny 103 39.4 49 9.4 16 16 W 9 15 29.73 1007 10 16.0934 N/A
3:20 pm 15:20 Partly Cloudy with Nearby Thunderstorms 99 37 52 11 21 21 NNE 29 46 29.65 1004 10 16.0934 N/A
3:37 pm 15:37 Mostly Sunny 95 35 54 12.2 25 25 NNE 33 54 29.68 1005 10 16.0934 N/A
3:51 pm 15:51 Sunny 97 36.1 51 10.6 21 21 NNE 32 52 29.73 1007 10 16.0934 N/A
3:58 pm 15:58 Sunny with Nearby Thunderstorms 95 35 51 10.6 23 23 NNE 30 48 29.65 1004 10 16.0934 N/A
4:35 pm 16:35 Sunny 93 33.9 49 9.4 22 22 NNE 25 41 29.65 1004 10 16.0934 N/A
4:51 pm 16:51 Sunny 93 33.9 49 9.4 22 22 NNE 21 33 29.75 1007 10 16.0934 N/A
5:40 pm 17:40 Mostly Cloudy with Thunderstorms 84 29 61 16 45 45 NNW 13 20 29.74 1007 10 16.0934 N/A
5:51 pm 17:51 Partly Cloudy 84 28.9 59 15 43 43 NNW 12 19 29.81 1010 10 16.0934 N/A
6:07 pm 18:07 Mostly Cloudy with Light Thunderstorms 83 28.3 61 16.1 48 48 NNW 18 30 29.77 1008 10 16.0934 N/A
6:35 pm 18:35 Mostly Cloudy with Light Rain 80 26.7 64 17.8 58 58 NNW 10 17 29.8 1009 10 16.0934 N/A
6:51 pm 18:51 Partly Cloudy 81 27.2 63 17.2 54 54 NNW 10 17 29.86 1011 10 16.0934 N/A
7:51 pm 19:51 Clear 80 26.7 66 18.9 62 62 W 6 9 29.85 1011 10 16.0934 N/A
8:51 pm 20:51 Clear 81 27.2 61 16.1 51 51 NNW 10 17 29.85 1011 10 16.0934 N/A
9:51 pm 21:51 Clear 83 28.3 59 15 44 44 E 13 20 29.87 1012 10 16.0934 N/A
10:51 pm 22:51 Clear 82 27.8 58 14.4 44 44 E 8 13 29.88 1012 10 16.0934 N/A
11:51 pm 23:51 Clear 81 27.2 58 14.4 45 45 E 7 11 29.89 1012 10 16.0934 N/A

Powered by AerisWeather